| time (UTC) | temp F | wind direction | speed knots | gust knots | rain 1hr in | rain 24hr in | rain mn in | humidity % | barometer mb |
| 20260906172342 | 97 | 180 | 2.6 | 3.5 | 0.00 | 0.00 | 0.00 | 44 | 1015.6 |
| 20260906171837 | 97 | 44 | 0.9 | 6.1 | 0.00 | 0.00 | 0.00 | 45 | 1015.9 |
| 20260906171332 | 98 | 71 | 3.5 | 6.1 | 0.00 | 0.00 | 0.00 | 44 | 1016.0 |
| 20260906170827 | 98 | 193 | 4.3 | 7.0 | 0.00 | 0.00 | 0.00 | 45 | 1016.0 |
| 20260906170323 | 97 | 164 | 2.6 | 5.2 | 0.00 | 0.00 | 0.00 | 44 | 1015.9 |
| 20260906165820 | 98 | 166 | 1.7 | 3.5 | 0.00 | 0.00 | 0.00 | 45 | 1016.0 |
| 20260906165314 | 98 | 101 | 5.2 | 7.0 | 0.00 | 0.00 | 0.00 | 45 | 1016.0 |
| 20260906164813 | 98 | 162 | 1.7 | 5.2 | 0.00 | 0.00 | 0.00 | 45 | 1016.2 |
| 20260906164308 | 98 | 204 | 1.7 | 3.5 | 0.00 | 0.00 | 0.00 | 45 | 1016.1 |
| 20260906163804 | 97 | 156 | 4.3 | 5.2 | 0.00 | 0.00 | 0.00 | 47 | 1016.3 |
| 20260906163301 | 96 | 290 | 1.7 | 2.6 | 0.00 | 0.00 | 0.00 | 49 | 1016.2 |
| 20260906162758 | 95 | 84 | 3.5 | 6.1 | 0.00 | 0.00 | 0.00 | 49 | 1016.3 |
| 20260906162256 | 96 | 262 | 0.9 | 2.6 | 0.00 | 0.00 | 0.00 | 50 | 1016.4 |
| 20260906161751 | 96 | 153 | 1.7 | 7.8 | 0.00 | 0.00 | 0.00 | 50 | 1016.4 |
| 20260906161250 | 95 | 152 | 4.3 | 6.1 | 0.00 | 0.00 | 0.00 | 49 | 1016.5 |
| 20260906160749 | 95 | 170 | 3.5 | 7.0 | 0.00 | 0.00 | 0.00 | 51 | 1016.4 |
| 20260906160243 | 94 | 166 | 1.7 | 5.2 | 0.00 | 0.00 | 0.00 | 52 | 1016.5 |
| 20260906155740 | 94 | 182 | 0.9 | 3.5 | 0.00 | 0.00 | 0.00 | 53 | 1016.5 |
| 20260906155236 | 93 | 101 | 1.7 | 3.5 | 0.00 | 0.00 | 0.00 | 54 | 1016.4 |
| 20260906154731 | 93 | 129 | 3.5 | 7.0 | 0.00 | 0.00 | 0.00 | 56 | 1016.5 |
| 20260906154226 | 93 | 193 | 1.7 | 3.5 | 0.00 | 0.00 | 0.00 | 56 | 1016.5 |
| 20260906153724 | 93 | 91 | 3.5 | 5.2 | 0.00 | 0.00 | 0.00 | 57 | 1016.5 |
| 20260906153219 | 92 | 171 | 1.7 | 5.2 | 0.00 | 0.00 | 0.00 | 58 | 1016.3 |
| 20260906152714 | 92 | 138 | 5.2 | 7.0 | 0.00 | 0.00 | 0.00 | 57 | 1016.2 |
| 20260906152210 | 93 | 122 | 2.6 | 2.6 | 0.00 | 0.00 | 0.00 | 58 | 1016.4 |
| 20260906151704 | 92 | 173 | 2.6 | 3.5 | 0.00 | 0.00 | 0.00 | 59 | 1016.5 |
| 20260906151159 | 91 | 171 | 3.5 | 5.2 | 0.00 | 0.00 | 0.00 | 59 | 1016.2 |
| 20260906150654 | 90 | 167 | 1.7 | 5.2 | 0.00 | 0.00 | 0.00 | 62 | 1016.5 |
| 20260906150149 | 90 | 183 | 0.9 | 3.5 | 0.00 | 0.00 | 0.00 | 61 | 1016.5 |
| 20260906145648 | 89 | 173 | 3.5 | 5.2 | 0.00 | 0.00 | 0.00 | 62 | 1016.2 |
| 20260906145143 | 89 | 181 | 5.2 | 6.1 | 0.00 | 0.00 | 0.00 | 64 | 1016.2 |
| 20260906144638 | 88 | 166 | 4.3 | 6.1 | 0.00 | 0.00 | 0.00 | 65 | 1016.4 |
| 20260906144138 | 88 | 211 | 2.6 | 5.2 | 0.00 | 0.00 | 0.00 | 66 | 1016.3 |
| 20260906143637 | 88 | 141 | 1.7 | 2.6 | 0.00 | 0.00 | 0.00 | 66 | 1016.4 |
| 20260906143135 | 87 | 171 | 3.5 | 5.2 | 0.00 | 0.00 | 0.00 | 66 | 1016.2 |
| 20260906142633 | 86 | 159 | 3.5 | 6.1 | 0.00 | 0.00 | 0.00 | 68 | 1016.1 |
| 20260906142129 | 87 | 143 | 3.5 | 5.2 | 0.00 | 0.00 | 0.00 | 67 | 1016.2 |
| 20260906141628 | 86 | 126 | 1.7 | 6.1 | 0.00 | 0.00 | 0.00 | 69 | 1016.3 |
| 20260906141123 | 85 | 183 | 0.9 | 2.6 | 0.00 | 0.00 | 0.00 | 71 | 1016.2 |
| 20260906140622 | 84 | 137 | 5.2 | 9.6 | 0.00 | 0.00 | 0.00 | 72 | 1016.2 |
| 20260906140117 | 84 | 140 | 0.9 | 5.2 | 0.00 | 0.00 | 0.00 | 72 | 1016.1 |
| 20260906135614 | 84 | 139 | 7.0 | 8.7 | 0.00 | 0.00 | 0.00 | 73 | 1016.1 |
| 20260906135110 | 84 | 196 | 6.1 | 7.8 | 0.00 | 0.00 | 0.00 | 73 | 1016.0 |
| 20260906134606 | 82 | 136 | 5.2 | 9.6 | 0.00 | 0.00 | 0.00 | 75 | 1016.1 |
| 20260906134101 | 82 | 187 | 7.0 | 9.6 | 0.00 | 0.00 | 0.00 | 76 | 1016.1 |
| 20260906133556 | 82 | 129 | 2.6 | 5.2 | 0.00 | 0.00 | 0.00 | 75 | 1016.0 |
| 20260906133052 | 82 | 123 | 4.3 | 8.7 | 0.00 | 0.00 | 0.00 | 77 | 1016.2 |
| 20260906132547 | 81 | 158 | 4.3 | 7.0 | 0.00 | 0.00 | 0.00 | 77 | 1016.2 |
| 20260906132042 | 81 | 138 | 5.2 | 6.1 | 0.00 | 0.00 | 0.00 | 77 | 1016.0 |
| 20260906131537 | 81 | 160 | 3.5 | 5.2 | 0.00 | 0.00 | 0.00 | 77 | 1016.2 |
| 20260906131033 | 81 | 155 | 2.6 | 3.5 | 0.00 | 0.00 | 0.00 | 78 | 1016.0 |
| 20260906130532 | 80 | 125 | 3.5 | 3.5 | 0.00 | 0.00 | 0.00 | 79 | 1016.0 |
| 20260906130028 | 80 | 142 | 1.7 | 5.2 | 0.00 | 0.00 | 0.00 | 80 | 1015.9 |
| 20260906125525 | 80 | 123 | 1.7 | 2.6 | 0.00 | 0.00 | 0.00 | 80 | 1015.7 |
| 20260906125024 | 79 | 144 | 1.7 | 3.5 | 0.00 | 0.00 | 0.00 | 81 | 1015.8 |
| 20260906124520 | 79 | 171 | 3.5 | 3.5 | 0.00 | 0.00 | 0.00 | 81 | 1015.7 |
| 20260906124016 | 78 | 139 | 2.6 | 5.2 | 0.00 | 0.00 | 0.00 | 82 | 1015.5 |
| 20260906123514 | 78 | 165 | 2.6 | 6.1 | 0.00 | 0.00 | 0.00 | 82 | 1015.6 |
| 20260906123009 | 78 | 148 | 3.5 | 5.2 | 0.00 | 0.00 | 0.00 | 84 | 1015.4 |
| 20260906122504 | 77 | 144 | 1.7 | 2.6 | 0.00 | 0.00 | 0.00 | 85 | 1015.4 |
| 20260906122000 | 77 | 146 | 2.6 | 5.2 | 0.00 | 0.00 | 0.00 | 85 | 1015.4 |
| 20260906121456 | 77 | 158 | 1.7 | 3.5 | 0.00 | 0.00 | 0.00 | 85 | 1015.3 |
| 20260906120952 | 77 | 168 | 3.5 | 3.5 | 0.00 | 0.00 | 0.00 | 85 | 1015.3 |
| 20260906120447 | 77 | 159 | 2.6 | 2.6 | 0.00 | 0.00 | 0.00 | 86 | 1015.4 |
| 20260906115944 | 77 | 159 | 3.5 | 3.5 | 0.00 | 0.00 | 0.00 | 87 | 1015.2 |
| 20260906115439 | 77 | 151 | 1.7 | 2.6 | 0.00 | 0.00 | 0.00 | 87 | 1015.3 |
| 20260906114939 | 77 | 116 | 1.7 | 1.7 | 0.00 | 0.00 | 0.00 | 86 | 1015.2 |
| 20260906114438 | 77 | 153 | 2.6 | 2.6 | 0.00 | 0.00 | 0.00 | 86 | 1015.1 |
| 20260906113935 | 77 | 164 | 0.9 | 2.6 | 0.00 | 0.00 | 0.00 | 86 | 1015.2 |
| 20260906113433 | 77 | 134 | 1.7 | 3.5 | 0.00 | 0.00 | 0.00 | 86 | 1015.2 |
| 20260906112929 | 77 | 140 | 2.6 | 3.5 | 0.00 | 0.00 | 0.00 | 86 | 1015.3 |
| 20260906112424 | 77 | 130 | 1.7 | 2.6 | 0.00 | 0.00 | 0.00 | 86 | 1015.3 |
| 20260906111920 | 77 | 118 | 1.7 | 5.2 | 0.00 | 0.00 | 0.00 | 85 | 1015.2 |
| 20260906111419 | 77 | 121 | 2.6 | 2.6 | 0.00 | 0.00 | 0.00 | 85 | 1015.1 |
| 20260906110914 | 77 | 139 | 2.6 | 2.6 | 0.00 | 0.00 | 0.00 | 84 | 1015.0 |
| 20260906110410 | 77 | 143 | 1.7 | 2.6 | 0.00 | 0.00 | 0.00 | 84 | 1015.1 |
| 20260906105909 | 77 | 167 | 3.5 | 3.5 | 0.00 | 0.00 | 0.00 | 84 | 1015.3 |
| 20260906105404 | 77 | 97 | 2.6 | 5.2 | 0.00 | 0.00 | 0.00 | 83 | 1015.2 |
| 20260906104900 | 77 | 141 | 2.6 | 5.2 | 0.00 | 0.00 | 0.00 | 83 | 1015.0 |
| 20260906104359 | 78 | 122 | 3.5 | 3.5 | 0.00 | 0.00 | 0.00 | 82 | 1015.0 |
| 20260906103858 | 78 | 142 | 1.7 | 3.5 | 0.00 | 0.00 | 0.00 | 81 | 1014.9 |
| 20260906103356 | 78 | 98 | 2.6 | 2.6 | 0.00 | 0.00 | 0.00 | 80 | 1014.9 |
| 20260906102852 | 79 | 118 | 1.7 | 3.5 | 0.00 | 0.00 | 0.00 | 79 | 1014.9 |
| 20260906102351 | 79 | 130 | 1.7 | 5.2 | 0.00 | 0.00 | 0.00 | 78 | 1014.7 |
| 20260906101846 | 79 | 111 | 1.7 | 2.6 | 0.00 | 0.00 | 0.00 | 78 | 1014.9 |
| 20260906101341 | 79 | 98 | 1.7 | 5.2 | 0.00 | 0.00 | 0.00 | 78 | 1014.7 |
| 20260906100837 | 79 | 125 | 2.6 | 3.5 | 0.00 | 0.00 | 0.00 | 77 | 1014.8 |
| 20260906100336 | 79 | 116 | 3.5 | 5.2 | 0.00 | 0.00 | 0.00 | 76 | 1014.8 |
| 20260906095831 | 79 | 133 | 2.6 | 6.1 | 0.00 | 0.00 | 0.00 | 76 | 1014.6 |
| 20260906095327 | 79 | 105 | 1.7 | 3.5 | 0.00 | 0.00 | 0.00 | 76 | 1014.5 |
| 20260906094826 | 79 | 102 | 2.6 | 3.5 | 0.00 | 0.00 | 0.00 | 76 | 1014.6 |
| 20260906094321 | 79 | 152 | 2.6 | 3.5 | 0.00 | 0.00 | 0.00 | 76 | 1014.5 |
| 20260906093817 | 79 | 161 | 0.9 | 1.7 | 0.00 | 0.00 | 0.00 | 76 | 1014.6 |
| 20260906093313 | 80 | 128 | 0.9 | 1.7 | 0.00 | 0.00 | 0.00 | 75 | 1014.6 |
| 20260906092808 | 80 | 116 | 0.9 | 1.7 | 0.00 | 0.00 | 0.00 | 74 | 1014.3 |
| 20260906092305 | 81 | 135 | 0.9 | 1.7 | 0.00 | 0.00 | 0.00 | 73 | 1014.5 |
| 20260906091758 | 81 | 147 | 0.9 | 1.7 | 0.00 | 0.00 | 0.00 | 72 | 1014.4 |
| 20260906091254 | 80 | 146 | 0.9 | 1.7 | 0.00 | 0.00 | 0.00 | 73 | 1014.2 |
| 20260906090750 | 80 | 134 | 0.9 | 1.7 | 0.00 | 0.00 | 0.00 | 73 | 1014.5 |
| 20260906090249 | 80 | 145 | 0.9 | 1.7 | 0.00 | 0.00 | 0.00 | 74 | 1014.4 |
| 20260906085748 | 80 | 188 | 0.0 | 1.7 | 0.00 | 0.00 | 0.00 | 74 | 1014.4 |
| 20260906085247 | 80 | 189 | 0.0 | 0.9 | 0.00 | 0.00 | 0.00 | 73 | 1014.5 |
| 20260906084737 | 80 | 189 | 0.0 | 0.9 | 0.00 | 0.00 | 0.00 | 73 | 1014.3 |
| 20260906084236 | 81 | 188 | 0.9 | 0.9 | 0.00 | 0.00 | 0.00 | 72 | 1014.2 |
| 20260906083731 | 82 | 182 | 0.0 | 0.9 | 0.00 | 0.00 | 0.00 | 71 | 1014.4 |
| 20260906083227 | 82 | 178 | 0.9 | 0.9 | 0.00 | 0.00 | 0.00 | 70 | 1014.3 |
| 20260906082722 | 82 | 187 | 0.9 | 0.9 | 0.00 | 0.00 | 0.00 | 69 | 1014.2 |
| 20260906082217 | 83 | 192 | 0.9 | 1.7 | 0.00 | 0.00 | 0.00 | 68 | 1014.1 |
| 20260906081713 | 83 | 167 | 1.7 | 2.6 | 0.00 | 0.00 | 0.00 | 67 | 1014.0 |
| 20260906081208 | 83 | 132 | 3.5 | 3.5 | 0.00 | 0.00 | 0.00 | 67 | 1014.3 |
| 20260906080704 | 84 | 150 | 2.6 | 3.5 | 0.00 | 0.00 | 0.00 | 67 | 1014.0 |
| 20260906080154 | 84 | 123 | 2.6 | 3.5 | 0.00 | 0.00 | 0.00 | 66 | 1014.2 |
| 20260906075654 | 84 | 128 | 4.3 | 5.2 | 0.00 | 0.00 | 0.00 | 66 | 1014.1 |
| 20260906075143 | 84 | 134 | 2.6 | 6.1 | 0.00 | 0.00 | 0.00 | 66 | 1014.1 |
| 20260906074638 | 84 | 148 | 3.5 | 5.2 | 0.00 | 0.00 | 0.00 | 66 | 1014.0 |
| 20260906074137 | 84 | 140 | 2.6 | 5.2 | 0.00 | 0.00 | 0.00 | 67 | 1014.0 |
| 20260906073632 | 83 | 121 | 3.5 | 6.1 | 0.00 | 0.00 | 0.00 | 67 | 1014.0 |
| 20260906073128 | 84 | 101 | 2.6 | 6.1 | 0.00 | 0.00 | 0.00 | 67 | 1014.2 |
| 20260906072623 | 84 | 130 | 2.6 | 5.2 | 0.00 | 0.00 | 0.00 | 67 | 1014.1 |
| 20260906072118 | 84 | 122 | 2.6 | 3.5 | 0.00 | 0.00 | 0.00 | 66 | 1014.1 |
| 20260906071614 | 84 | 122 | 2.6 | 5.2 | 0.00 | 0.00 | 0.00 | 66 | 1014.0 |
| 20260906071109 | 84 | 128 | 3.5 | 5.2 | 0.00 | 0.00 | 0.00 | 66 | 1014.2 |
| 20260906070606 | 84 | 111 | 2.6 | 3.5 | 0.00 | 0.00 | 0.00 | 67 | 1014.3 |
| 20260906070101 | 84 | 133 | 2.6 | 3.5 | 0.00 | 0.00 | 0.00 | 66 | 1014.3 |
| 20260906065601 | 84 | 146 | 1.7 | 6.1 | 0.00 | 0.00 | 0.00 | 65 | 1014.4 |
| 20260906065056 | 84 | 148 | 2.6 | 3.5 | 0.00 | 0.00 | 0.00 | 65 | 1014.4 |
| 20260906064552 | 84 | 123 | 2.6 | 5.2 | 0.00 | 0.00 | 0.00 | 65 | 1014.5 |
| 20260906064047 | 84 | 137 | 3.5 | 3.5 | 0.00 | 0.00 | 0.00 | 66 | 1014.5 |
| 20260906063542 | 84 | 114 | 2.6 | 5.2 | 0.00 | 0.00 | 0.00 | 65 | 1014.7 |
| 20260906063038 | 85 | 104 | 3.5 | 3.5 | 0.00 | 0.00 | 0.00 | 64 | 1014.7 |
| 20260906062533 | 85 | 145 | 3.5 | 3.5 | 0.00 | 0.00 | 0.00 | 64 | 1014.7 |
| 20260906062027 | 86 | 155 | 3.5 | 5.2 | 0.00 | 0.00 | 0.00 | 63 | 1014.7 |
| 20260906061523 | 86 | 125 | 3.5 | 6.1 | 0.00 | 0.00 | 0.00 | 62 | 1014.8 |
| 20260906061022 | 85 | 136 | 3.5 | 5.2 | 0.00 | 0.00 | 0.00 | 62 | 1014.8 |
| 20260906060519 | 86 | 130 | 3.5 | 3.5 | 0.00 | 0.00 | 0.00 | 62 | 1014.7 |
| 20260906060016 | 85 | 119 | 2.6 | 3.5 | 0.00 | 0.00 | 0.00 | 63 | 1014.7 |
| 20260906055511 | 86 | 130 | 3.5 | 5.2 | 0.00 | 0.00 | 0.00 | 62 | 1014.7 |
| 20260906055006 | 86 | 117 | 1.7 | 3.5 | 0.00 | 0.00 | 0.00 | 63 | 1014.7 |
| 20260906054501 | 86 | 133 | 3.5 | 5.2 | 0.00 | 0.00 | 0.00 | 62 | 1014.8 |
| 20260906053956 | 85 | 86 | 2.6 | 3.5 | 0.00 | 0.00 | 0.00 | 63 | 1014.8 |
| 20260906053453 | 85 | 135 | 1.7 | 3.5 | 0.00 | 0.00 | 0.00 | 64 | 1014.7 |
| 20260906052948 | 85 | 133 | 1.7 | 3.5 | 0.00 | 0.00 | 0.00 | 63 | 1014.8 |
| 20260906052444 | 85 | 114 | 2.6 | 5.2 | 0.00 | 0.00 | 0.00 | 63 | 1014.7 |
| 20260906051941 | 85 | 141 | 1.7 | 3.5 | 0.00 | 0.00 | 0.00 | 63 | 1014.7 |
| 20260906051436 | 85 | 115 | 1.7 | 3.5 | 0.00 | 0.00 | 0.00 | 63 | 1014.7 |
| 20260906050932 | 86 | 138 | 2.6 | 2.6 | 0.00 | 0.00 | 0.00 | 63 | 1014.7 |
| 20260906050431 | 86 | 134 | 2.6 | 3.5 | 0.00 | 0.00 | 0.00 | 62 | 1014.8 |
| 20260906045930 | 86 | 116 | 1.7 | 2.6 | 0.00 | 0.00 | 0.00 | 62 | 1014.6 |
| 20260906045429 | 86 | 149 | 1.7 | 3.5 | 0.00 | 0.00 | 0.00 | 62 | 1014.7 |
| 20260906044926 | 86 | 127 | 2.6 | 5.2 | 0.00 | 0.00 | 0.00 | 62 | 1014.6 |
| 20260906044426 | 86 | 136 | 2.6 | 2.6 | 0.00 | 0.00 | 0.00 | 63 | 1014.7 |
| 20260906043922 | 86 | 108 | 1.7 | 2.6 | 0.00 | 0.00 | 0.00 | 63 | 1014.6 |
| 20260906043417 | 86 | 136 | 2.6 | 3.5 | 0.00 | 0.00 | 0.00 | 62 | 1014.7 |
| 20260906042912 | 86 | 133 | 1.7 | 3.5 | 0.00 | 0.00 | 0.00 | 63 | 1014.8 |
| 20260906042411 | 86 | 170 | 1.7 | 5.2 | 0.00 | 0.00 | 0.00 | 62 | 1014.5 |
| 20260906041906 | 86 | 148 | 2.6 | 3.5 | 0.00 | 0.00 | 0.00 | 63 | 1014.7 |
| 20260906041402 | 85 | 164 | 2.6 | 3.5 | 0.00 | 0.00 | 0.00 | 63 | 1014.8 |
| 20260906040856 | 86 | 161 | 1.7 | 2.6 | 0.00 | 0.00 | 0.00 | 63 | 1014.7 |
| 20260906040352 | 86 | 161 | 2.6 | 3.5 | 0.00 | 0.00 | 0.00 | 63 | 1014.9 |
| 20260906035847 | 86 | 144 | 1.7 | 2.6 | 0.00 | 0.00 | 0.00 | 63 | 1014.7 |
| 20260906035342 | 86 | 166 | 1.7 | 2.6 | 0.00 | 0.00 | 0.00 | 63 | 1014.9 |
| 20260906034837 | 86 | 123 | 0.9 | 2.6 | 0.00 | 0.00 | 0.00 | 63 | 1014.7 |
| 20260906034332 | 86 | 131 | 1.7 | 2.6 | 0.00 | 0.00 | 0.00 | 62 | 1014.7 |
| 20260906033828 | 86 | 182 | 1.7 | 2.6 | 0.00 | 0.00 | 0.00 | 62 | 1014.7 |
| 20260906033327 | 87 | 120 | 1.7 | 3.5 | 0.00 | 0.00 | 0.00 | 61 | 1014.7 |
| 20260906032824 | 87 | 144 | 2.6 | 3.5 | 0.00 | 0.00 | 0.00 | 61 | 1014.5 |
| 20260906032319 | 87 | 146 | 3.5 | 3.5 | 0.00 | 0.00 | 0.00 | 61 | 1014.3 |
| 20260906031814 | 87 | 118 | 1.7 | 3.5 | 0.00 | 0.00 | 0.00 | 61 | 1014.4 |
| 20260906031310 | 87 | 108 | 2.6 | 3.5 | 0.00 | 0.00 | 0.00 | 61 | 1014.3 |
| 20260906030810 | 87 | 147 | 2.6 | 5.2 | 0.00 | 0.00 | 0.00 | 60 | 1014.5 |
| 20260906030305 | 87 | 111 | 5.2 | 6.1 | 0.00 | 0.00 | 0.00 | 60 | 1014.0 |
| 20260906025805 | 87 | 147 | 2.6 | 5.2 | 0.00 | 0.00 | 0.00 | 60 | 1014.3 |
| 20260906025259 | 87 | 114 | 3.5 | 6.1 | 0.00 | 0.00 | 0.00 | 59 | 1014.2 |
| 20260906024758 | 88 | 128 | 2.6 | 5.2 | 0.00 | 0.00 | 0.00 | 59 | 1014.1 |
| 20260906024257 | 88 | 100 | 2.6 | 5.2 | 0.00 | 0.00 | 0.00 | 59 | 1013.8 |
| 20260906023753 | 88 | 102 | 1.7 | 3.5 | 0.00 | 0.00 | 0.00 | 59 | 1014.2 |
| 20260906023248 | 88 | 107 | 1.7 | 2.6 | 0.00 | 0.00 | 0.00 | 59 | 1014.0 |
| 20260906022744 | 88 | 119 | 2.6 | 5.2 | 0.00 | 0.00 | 0.00 | 59 | 1014.1 |
| 20260906022239 | 89 | 79 | 2.6 | 3.5 | 0.00 | 0.00 | 0.00 | 58 | 1013.6 |
| 20260906021735 | 89 | 99 | 1.7 | 3.5 | 0.00 | 0.00 | 0.00 | 58 | 1013.7 |
| 20260906021233 | 89 | 92 | 1.7 | 3.5 | 0.00 | 0.00 | 0.00 | 57 | 1013.6 |
| 20260906020728 | 89 | 117 | 1.7 | 3.5 | 0.00 | 0.00 | 0.00 | 57 | 1013.5 |
| 20260906020223 | 89 | 90 | 4.3 | 5.2 | 0.00 | 0.00 | 0.00 | 57 | 1013.4 |
| 20260906015717 | 89 | 90 | 2.6 | 3.5 | 0.00 | 0.00 | 0.00 | 57 | 1013.5 |
| 20260906015210 | 90 | 96 | 2.6 | 5.2 | 0.00 | 0.00 | 0.00 | 56 | 1013.4 |
| 20260906014705 | 90 | 99 | 3.5 | 5.2 | 0.00 | 0.00 | 0.00 | 56 | 1013.1 |
| 20260906014201 | 90 | 111 | 0.9 | 3.5 | 0.00 | 0.00 | 0.00 | 56 | 1013.2 |
| 20260906013657 | 91 | 89 | 1.7 | 5.2 | 0.00 | 0.00 | 0.00 | 55 | 1013.0 |
| 20260906013152 | 91 | 88 | 3.5 | 5.2 | 0.00 | 0.00 | 0.00 | 55 | 1013.0 |
| 20260906012651 | 91 | 126 | 2.6 | 6.1 | 0.00 | 0.00 | 0.00 | 55 | 1013.2 |
| 20260906012146 | 91 | 107 | 1.7 | 5.2 | 0.00 | 0.00 | 0.00 | 54 | 1013.0 |
| 20260906011642 | 91 | 81 | 0.9 | 3.5 | 0.00 | 0.00 | 0.00 | 54 | 1012.9 |
| 20260906011136 | 91 | 68 | 1.7 | 3.5 | 0.00 | 0.00 | 0.00 | 54 | 1012.8 |
| 20260906010632 | 91 | 93 | 1.7 | 3.5 | 0.00 | 0.00 | 0.00 | 54 | 1012.9 |
| 20260906010128 | 92 | 77 | 3.5 | 5.2 | 0.00 | 0.00 | 0.00 | 53 | 1012.8 |
| 20260906005627 | 92 | 98 | 1.7 | 2.6 | 0.00 | 0.00 | 0.00 | 53 | 1012.7 |
| 20260906005126 | 92 | 94 | 1.7 | 2.6 | 0.00 | 0.00 | 0.00 | 52 | 1012.9 |
| 20260906004625 | 93 | 92 | 2.6 | 2.6 | 0.00 | 0.00 | 0.00 | 52 | 1012.7 |
| 20260906004121 | 93 | 113 | 1.7 | 2.6 | 0.00 | 0.00 | 0.00 | 51 | 1012.7 |
| 20260906003616 | 93 | 87 | 0.9 | 1.7 | 0.00 | 0.00 | 0.00 | 51 | 1012.8 |
| 20260906003112 | 94 | 97 | 0.9 | 3.5 | 0.00 | 0.00 | 0.00 | 50 | 1012.5 |
| 20260906002607 | 94 | 98 | 2.6 | 2.6 | 0.00 | 0.00 | 0.00 | 50 | 1012.8 |
| 20260906002101 | 95 | 121 | 0.9 | 2.6 | 0.00 | 0.00 | 0.00 | 49 | 1012.8 |
| 20260906001551 | 95 | 92 | 1.7 | 2.6 | 0.00 | 0.00 | 0.00 | 48 | 1012.8 |
| 20260906001050 | 96 | 122 | 1.7 | 3.5 | 0.00 | 0.00 | 0.00 | 48 | 1012.7 |
| 20260906000546 | 96 | 146 | 0.9 | 3.5 | 0.00 | 0.00 | 0.00 | 47 | 1012.6 |
| 20260906000042 | 96 | 135 | 5.2 | 7.0 | 0.00 | 0.00 | 0.00 | 46 | 1012.7 |
| 20260905235536 | 97 | 136 | 0.9 | 7.8 | 0.00 | 0.00 | 0.00 | 46 | 1012.5 |
| 20260905235031 | 97 | 116 | 2.6 | 3.5 | 0.00 | 0.00 | 0.00 | 45 | 1012.5 |
| 20260905234526 | 97 | 134 | 0.9 | 6.1 | 0.00 | 0.00 | 0.00 | 45 | 1012.6 |
| 20260905234021 | 98 | 101 | 0.9 | 5.2 | 0.00 | 0.00 | 0.00 | 43 | 1012.8 |
| 20260905233516 | 98 | 116 | 2.6 | 6.1 | 0.00 | 0.00 | 0.00 | 43 | 1012.6 |
| 20260905233015 | 98 | 89 | 2.6 | 7.0 | 0.00 | 0.00 | 0.00 | 42 | 1012.5 |
| 20260905232511 | 99 | 135 | 3.5 | 6.1 | 0.00 | 0.00 | 0.00 | 41 | 1012.6 |
| 20260905232007 | 99 | 117 | 1.7 | 7.0 | 0.00 | 0.00 | 0.00 | 41 | 1012.5 |
| 20260905231502 | 100 | 341 | 4.3 | 8.7 | 0.00 | 0.00 | 0.00 | 40 | 1012.6 |
| 20260905230958 | 99 | 115 | 5.2 | 6.1 | 0.00 | 0.00 | 0.00 | 39 | 1012.5 |
| 20260905230456 | 100 | 142 | 0.9 | 1.7 | 0.00 | 0.00 | 0.00 | 38 | 1012.7 |
| 20260905225954 | 100 | 71 | 1.7 | 2.6 | 0.00 | 0.00 | 0.00 | 38 | 1012.5 |
| 20260905225450 | 100 | 94 | 2.6 | 6.1 | 0.00 | 0.00 | 0.00 | 39 | 1012.4 |
| 20260905224945 | 100 | 34 | 2.6 | 7.0 | 0.00 | 0.00 | 0.00 | 38 | 1012.5 |
| 20260905224440 | 100 | 129 | 1.7 | 3.5 | 0.00 | 0.00 | 0.00 | 38 | 1012.5 |
| 20260905223939 | 101 | 17 | 1.7 | 2.6 | 0.00 | 0.00 | 0.00 | 37 | 1012.4 |
| 20260905223438 | 102 | 51 | 1.7 | 3.5 | 0.00 | 0.00 | 0.00 | 37 | 1012.5 |
| 20260905222932 | 102 | 115 | 1.7 | 3.5 | 0.00 | 0.00 | 0.00 | 37 | 1012.4 |
| 20260905222432 | 102 | 321 | 0.9 | 2.6 | 0.00 | 0.00 | 0.00 | 36 | 1012.5 |
| 20260905221928 | 102 | 50 | 2.6 | 2.6 | 0.00 | 0.00 | 0.00 | 37 | 1012.5 |
| 20260905221424 | 101 | 50 | 0.9 | 3.5 | 0.00 | 0.00 | 0.00 | 38 | 1012.7 |
| 20260905220920 | 101 | 307 | 2.6 | 2.6 | 0.00 | 0.00 | 0.00 | 38 | 1012.7 |
| 20260905220416 | 100 | 105 | 0.9 | 2.6 | 0.00 | 0.00 | 0.00 | 38 | 1012.5 |
| 20260905215915 | 100 | 68 | 1.7 | 3.5 | 0.00 | 0.00 | 0.00 | 38 | 1012.7 |
| 20260905215411 | 100 | 5 | 2.6 | 3.5 | 0.00 | 0.00 | 0.00 | 38 | 1012.7 |
| 20260905214907 | 100 | 315 | 2.6 | 7.0 | 0.00 | 0.00 | 0.00 | 38 | 1012.9 |
| 20260905214403 | 100 | 313 | 6.1 | 7.8 | 0.00 | 0.00 | 0.00 | 38 | 1012.6 |
| 20260905213857 | 100 | 297 | 2.6 | 7.0 | 0.00 | 0.00 | 0.00 | 38 | 1012.8 |
| 20260905213354 | 100 | 42 | 3.5 | 7.0 | 0.00 | 0.00 | 0.00 | 38 | 1012.9 |
| 20260905212854 | 100 | 309 | 7.0 | 8.7 | 0.00 | 0.00 | 0.00 | 39 | 1012.9 |
| 20260905212354 | 100 | 10 | 2.6 | 5.2 | 0.00 | 0.00 | 0.00 | 39 | 1013.0 |
| 20260905211847 | 100 | 10 | 3.5 | 3.5 | 0.00 | 0.00 | 0.00 | 38 | 1012.9 |
| 20260905211344 | 100 | 301 | 2.6 | 6.1 | 0.00 | 0.00 | 0.00 | 39 | 1013.0 |
| 20260905210840 | 100 | 318 | 6.1 | 8.7 | 0.00 | 0.00 | 0.00 | 38 | 1013.2 |
| 20260905210340 | 101 | 339 | 6.1 | 8.7 | 0.00 | 0.00 | 0.00 | 38 | 1013.2 |
| 20260905205839 | 102 | 309 | 3.5 | 7.0 | 0.00 | 0.00 | 0.00 | 39 | 1013.2 |
| 20260905205333 | 100 | 207 | 1.7 | 3.5 | 0.00 | 0.00 | 0.00 | 38 | 1013.3 |
| 20260905204832 | 100 | 312 | 5.2 | 7.8 | 0.00 | 0.00 | 0.00 | 39 | 1013.5 |
| 20260905204329 | 100 | 296 | 3.5 | 7.0 | 0.00 | 0.00 | 0.00 | 39 | 1013.5 |
| 20260905203827 | 100 | 335 | 5.2 | 7.8 | 0.00 | 0.00 | 0.00 | 40 | 1013.3 |
| 20260905203324 | 101 | 21 | 3.5 | 5.2 | 0.00 | 0.00 | 0.00 | 39 | 1013.6 |
| 20260905202819 | 99 | 330 | 0.9 | 3.5 | 0.00 | 0.00 | 0.00 | 40 | 1013.7 |
| 20260905202314 | 100 | 322 | 2.6 | 8.7 | 0.00 | 0.00 | 0.00 | 40 | 1013.5 |
| 20260905201809 | 100 | 327 | 5.2 | 8.7 | 0.00 | 0.00 | 0.00 | 41 | 1013.8 |
| 20260905201304 | 98 | 352 | 3.5 | 7.8 | 0.00 | 0.00 | 0.00 | 41 | 1013.8 |
| 20260905200759 | 99 | 246 | 5.2 | 7.0 | 0.00 | 0.00 | 0.00 | 41 | 1013.8 |
| 20260905200255 | 99 | 299 | 3.5 | 5.2 | 0.00 | 0.00 | 0.00 | 41 | 1014.0 |
| 20260905195753 | 99 | 321 | 4.3 | 7.0 | 0.00 | 0.00 | 0.00 | 41 | 1014.2 |
| 20260905195248 | 98 | 333 | 5.2 | 7.8 | 0.00 | 0.00 | 0.00 | 42 | 1014.2 |
| 20260905194743 | 98 | 305 | 7.0 | 8.7 | 0.00 | 0.00 | 0.00 | 42 | 1014.1 |
| 20260905194242 | 99 | 320 | 7.0 | 7.8 | 0.00 | 0.00 | 0.00 | 41 | 1014.3 |
| 20260905193737 | 99 | 307 | 5.2 | 7.8 | 0.00 | 0.00 | 0.00 | 41 | 1014.2 |
| 20260905193232 | 100 | 316 | 7.0 | 8.7 | 0.00 | 0.00 | 0.00 | 41 | 1014.3 |
| 20260905192727 | 98 | 338 | 1.7 | 9.6 | 0.00 | 0.00 | 0.00 | 42 | 1014.4 |
| 20260905192224 | 97 | 281 | 2.6 | 6.1 | 0.00 | 0.00 | 0.00 | 43 | 1014.5 |
| 20260905191723 | 98 | 325 | 6.1 | 11.3 | 0.00 | 0.00 | 0.00 | 42 | 1014.5 |
| 20260905191221 | 100 | 259 | 5.2 | 7.0 | 0.00 | 0.00 | 0.00 | 41 | 1014.5 |
| 20260905190720 | 100 | 50 | 2.6 | 3.5 | 0.00 | 0.00 | 0.00 | 41 | 1014.5 |
| 20260905190219 | 100 | 355 | 3.5 | 7.8 | 0.00 | 0.00 | 0.00 | 42 | 1014.7 |
| 20260905185718 | 99 | 218 | 3.5 | 6.1 | 0.00 | 0.00 | 0.00 | 41 | 1014.8 |
| 20260905185213 | 98 | 271 | 2.6 | 3.5 | 0.00 | 0.00 | 0.00 | 42 | 1015.0 |
| 20260905184713 | 98 | 247 | 3.5 | 7.8 | 0.00 | 0.00 | 0.00 | 43 | 1015.2 |
| 20260905184212 | 97 | 330 | 4.3 | 7.8 | 0.00 | 0.00 | 0.00 | 44 | 1015.2 |
| 20260905183706 | 98 | 359 | 4.3 | 7.8 | 0.00 | 0.00 | 0.00 | 44 | 1015.2 |
| 20260905183201 | 98 | 4 | 2.6 | 3.5 | 0.00 | 0.00 | 0.00 | 43 | 1015.2 |
| 20260905182700 | 97 | 319 | 5.2 | 7.8 | 0.00 | 0.00 | 0.00 | 45 | 1015.4 |
| 20260905182155 | 98 | 286 | 6.1 | 9.6 | 0.00 | 0.00 | 0.00 | 44 | 1015.3 |
| 20260905181650 | 97 | 232 | 2.6 | 5.2 | 0.00 | 0.00 | 0.00 | 45 | 1015.5 |
| 20260905181149 | 97 | 340 | 7.0 | 8.7 | 0.00 | 0.00 | 0.00 | 45 | 1015.6 |
| 20260905180644 | 97 | 328 | 5.2 | 6.1 | 0.00 | 0.00 | 0.00 | 44 | 1015.5 |
| 20260905180139 | 96 | 31 | 3.5 | 6.1 | 0.00 | 0.00 | 0.00 | 46 | 1015.7 |
| 20260905175638 | 96 | 320 | 4.3 | 7.0 | 0.00 | 0.00 | 0.00 | 47 | 1015.8 |
| 20260905175134 | 97 | 313 | 6.1 | 11.3 | 0.00 | 0.00 | 0.00 | 46 | 1015.9 |
| 20260905174629 | 97 | 349 | 6.1 | 7.8 | 0.00 | 0.00 | 0.00 | 46 | 1015.8 |
| 20260905174125 | 97 | 322 | 4.3 | 7.8 | 0.00 | 0.00 | 0.00 | 46 | 1015.9 |
| 20260905173621 | 96 | 336 | 1.7 | 3.5 | 0.00 | 0.00 | 0.00 | 46 | 1016.2 |
| 20260905173116 | 96 | 338 | 2.6 | 5.2 | 0.00 | 0.00 | 0.00 | 48 | 1016.2 |
| 20260905172615 | 95 | 333 | 5.2 | 7.8 | 0.00 | 0.00 | 0.00 | 49 | 1016.1 |